| time (UTC) | temp F | wind direction | speed knots | gust knots | rain 1hr in | rain 24hr in | rain mn in | humidity % | barometer mb |
| 20260504202017 | 79 | 317 | 4.3 | 8.7 | 0.00 | 0.00 | 0.00 | 29 | 1007.8 |
| 20260504201535 | 78 | 31 | 1.7 | 7.8 | 0.00 | 0.00 | 0.00 | 28 | 1007.9 |
| 20260504201020 | 78 | 19 | 2.6 | 9.6 | 0.00 | 0.00 | 0.00 | 28 | 1007.9 |
| 20260504200514 | 78 | 350 | 2.6 | 9.6 | 0.00 | 0.00 | 0.00 | 26 | 1007.9 |
| 20260504200034 | 78 | 352 | 2.6 | 8.7 | 0.00 | 0.00 | 0.00 | 29 | 1008.0 |
| 20260504195516 | 78 | 360 | 0.9 | 6.1 | 0.00 | 0.00 | 0.00 | 30 | 1008.0 |
| 20260504195017 | 78 | 12 | 1.7 | 6.1 | 0.00 | 0.00 | 0.00 | 32 | 1007.9 |
| 20260504194535 | 77 | 223 | 1.7 | 9.6 | 0.00 | 0.00 | 0.00 | 30 | 1007.9 |
| 20260504194018 | 77 | 305 | 3.5 | 11.3 | 0.00 | 0.00 | 0.00 | 30 | 1008.0 |
| 20260504193518 | 77 | 333 | 8.7 | 11.3 | 0.00 | 0.00 | 0.00 | 33 | 1008.0 |
| 20260504193031 | 77 | 290 | 3.5 | 7.8 | 0.00 | 0.00 | 0.00 | 33 | 1008.0 |
| 20260504192516 | 77 | 319 | 4.3 | 7.8 | 0.00 | 0.00 | 0.00 | 33 | 1008.0 |
| 20260504192016 | 76 | 263 | 2.6 | 8.7 | 0.00 | 0.00 | 0.00 | 32 | 1008.0 |
| 20260504191537 | 76 | 298 | 2.6 | 8.7 | 0.00 | 0.00 | 0.00 | 31 | 1008.0 |
| 20260504191017 | 76 | 324 | 5.2 | 9.6 | 0.00 | 0.00 | 0.00 | 33 | 1008.0 |
| 20260504190516 | 76 | 331 | 3.5 | 9.6 | 0.00 | 0.00 | 0.00 | 30 | 1008.2 |
| 20260504190037 | 76 | 14 | 3.5 | 8.7 | 0.00 | 0.00 | 0.00 | 37 | 1008.1 |
| 20260504185514 | 76 | 348 | 4.3 | 9.6 | 0.00 | 0.00 | 0.00 | 38 | 1008.1 |
| 20260504185015 | 76 | 331 | 3.5 | 11.3 | 0.00 | 0.00 | 0.00 | 34 | 1008.2 |
| 20260504184530 | 75 | 333 | 7.8 | 11.3 | 0.00 | 0.00 | 0.00 | 37 | 1008.3 |
| 20260504184015 | 75 | 336 | 5.2 | 10.4 | 0.00 | 0.00 | 0.00 | 38 | 1008.3 |
| 20260504183517 | 75 | 336 | 7.0 | 10.4 | 0.00 | 0.00 | 0.00 | 37 | 1008.5 |
| 20260504183034 | 74 | 315 | 5.2 | 10.4 | 0.00 | 0.00 | 0.00 | 38 | 1008.5 |
| 20260504182516 | 74 | 317 | 5.2 | 9.6 | 0.00 | 0.00 | 0.00 | 39 | 1008.6 |
| 20260504182015 | 74 | 338 | 6.1 | 9.6 | 0.00 | 0.00 | 0.00 | 40 | 1008.6 |
| 20260504181542 | 74 | 360 | 5.2 | 11.3 | 0.00 | 0.00 | 0.00 | 39 | 1008.5 |
| 20260504181015 | 73 | 302 | 5.2 | 11.3 | 0.00 | 0.00 | 0.00 | 39 | 1008.5 |
| 20260504180515 | 72 | 304 | 2.6 | 7.8 | 0.00 | 0.00 | 0.00 | 39 | 1008.7 |
| 20260504180033 | 72 | 324 | 3.5 | 9.6 | 0.00 | 0.00 | 0.00 | 40 | 1008.8 |
| 20260504175515 | 71 | 324 | 5.2 | 9.6 | 0.00 | 0.00 | 0.00 | 42 | 1008.9 |
| 20260504175015 | 71 | 334 | 5.2 | 9.6 | 0.00 | 0.00 | 0.00 | 41 | 1008.8 |
| 20260504174530 | 70 | 352 | 3.5 | 8.7 | 0.00 | 0.00 | 0.00 | 45 | 1008.9 |
| 20260504174015 | 70 | 305 | 4.3 | 8.7 | 0.00 | 0.00 | 0.00 | 43 | 1009.0 |
| 20260504173515 | 70 | 330 | 3.5 | 7.8 | 0.00 | 0.00 | 0.00 | 43 | 1008.9 |
| 20260504173032 | 69 | 319 | 3.5 | 7.0 | 0.00 | 0.00 | 0.00 | 42 | 1009.1 |
| 20260504172514 | 69 | 349 | 3.5 | 7.0 | 0.00 | 0.00 | 0.00 | 43 | 1009.2 |
| 20260504172017 | 68 | 326 | 0.9 | 4.3 | 0.00 | 0.00 | 0.00 | 44 | 1009.2 |
| 20260504171535 | 68 | 319 | 1.7 | 5.2 | 0.00 | 0.00 | 0.00 | 46 | 1009.2 |
| 20260504171016 | 68 | 351 | 2.6 | 5.2 | 0.00 | 0.00 | 0.00 | 45 | 1009.2 |
| 20260504170517 | 67 | 341 | 2.6 | 7.8 | 0.00 | 0.00 | 0.00 | 44 | 1009.2 |
| 20260504151015 | 53 | 323 | 3.5 | 4.3 | 0.00 | 0.00 | 0.00 | 72 | 1010.0 |
| 20260504150513 | 53 | 330 | 2.6 | 4.3 | 0.00 | 0.00 | 0.00 | 74 | 1010.0 |
| 20260504141015 | 45 | 321 | 1.7 | 4.3 | 0.00 | 0.00 | 0.00 | 86 | 1009.9 |
| 20260504140512 | 44 | 336 | 2.6 | 4.3 | 0.00 | 0.00 | 0.00 | 87 | 1010.0 |
| 20260504130512 | 38 | 0 | 0.0 | 0.0 | 0.00 | 0.00 | 0.00 | 91 | 1009.8 |
| 20260504110516 | 41 | 0 | 0.0 | 0.9 | 0.00 | 0.00 | 0.00 | 89 | 1009.1 |
| 20260504100517 | 41 | 145 | 0.9 | 2.6 | 0.00 | 0.00 | 0.00 | 87 | 1008.9 |
| 20260504081538 | 43 | 76 | 0.0 | 1.7 | 0.00 | 0.00 | 0.00 | 85 | 1008.7 |
| 20260504081016 | 43 | 76 | 0.0 | 2.6 | 0.00 | 0.00 | 0.00 | 85 | 1008.7 |
| 20260504080516 | 43 | 0 | 0.9 | 3.5 | 0.00 | 0.00 | 0.00 | 85 | 1008.8 |
| 20260504050517 | 53 | 162 | 0.9 | 1.7 | 0.00 | 0.00 | 0.00 | 75 | 1008.5 |
| 20260504045516 | 54 | 0 | 0.0 | 1.7 | 0.00 | 0.00 | 0.00 | 73 | 1008.5 |
| 20260504045017 | 54 | 0 | 0.0 | 3.5 | 0.00 | 0.00 | 0.00 | 75 | 1008.3 |
| 20260504044542 | 54 | 0 | 0.0 | 5.2 | 0.00 | 0.00 | 0.00 | 75 | 1008.3 |
| 20260504044015 | 54 | 116 | 2.6 | 7.0 | 0.00 | 0.00 | 0.00 | 73 | 1008.3 |
| 20260504043515 | 55 | 130 | 2.6 | 7.0 | 0.00 | 0.00 | 0.00 | 72 | 1008.3 |
| 20260504043040 | 56 | 92 | 2.6 | 5.2 | 0.00 | 0.00 | 0.00 | 70 | 1008.3 |
| 20260504042516 | 57 | 163 | 0.9 | 3.5 | 0.00 | 0.00 | 0.00 | 69 | 1008.2 |
| 20260504042015 | 57 | 249 | 0.9 | 3.5 | 0.00 | 0.00 | 0.00 | 68 | 1008.3 |
| 20260504041535 | 57 | 115 | 0.9 | 3.5 | 0.00 | 0.00 | 0.00 | 67 | 1008.2 |
| 20260504041015 | 58 | 115 | 1.7 | 3.5 | 0.00 | 0.00 | 0.00 | 66 | 1008.1 |
| 20260504040519 | 58 | 169 | 1.7 | 3.5 | 0.00 | 0.00 | 0.00 | 65 | 1007.9 |
| 20260504040044 | 59 | 265 | 0.0 | 2.6 | 0.00 | 0.00 | 0.00 | 66 | 1008.1 |
| 20260504035516 | 59 | 265 | 0.9 | 4.3 | 0.00 | 0.00 | 0.00 | 66 | 1008.0 |
| 20260504035015 | 59 | 119 | 0.9 | 4.3 | 0.00 | 0.00 | 0.00 | 64 | 1007.9 |
| 20260504034533 | 60 | 169 | 2.6 | 4.3 | 0.00 | 0.00 | 0.00 | 63 | 1007.8 |
| 20260504034015 | 61 | 173 | 1.7 | 2.6 | 0.00 | 0.00 | 0.00 | 62 | 1007.7 |
| 20260504033515 | 61 | 123 | 0.9 | 1.7 | 0.00 | 0.00 | 0.00 | 63 | 1007.7 |
| 20260504033032 | 61 | 123 | 0.0 | 1.7 | 0.00 | 0.00 | 0.00 | 63 | 1007.6 |
| 20260504032516 | 62 | 98 | 0.0 | 1.7 | 0.00 | 0.00 | 0.00 | 62 | 1007.6 |
| 20260504032021 | 63 | 98 | 0.0 | 3.5 | 0.00 | 0.00 | 0.00 | 60 | 1007.5 |
| 20260504031532 | 64 | 98 | 1.7 | 3.5 | 0.00 | 0.00 | 0.00 | 57 | 1007.4 |
| 20260504031015 | 65 | 113 | 2.6 | 3.5 | 0.00 | 0.00 | 0.00 | 54 | 1007.4 |
| 20260504030515 | 65 | 184 | 0.9 | 3.5 | 0.00 | 0.00 | 0.00 | 52 | 1007.3 |
| 20260504030033 | 66 | 0 | 0.0 | 3.5 | 0.00 | 0.00 | 0.00 | 54 | 1007.3 |
| 20260504025515 | 67 | 184 | 0.9 | 3.5 | 0.00 | 0.00 | 0.00 | 52 | 1007.3 |
| 20260504025015 | 67 | 0 | 0.0 | 1.7 | 0.00 | 0.00 | 0.00 | 54 | 1007.3 |
| 20260504024530 | 68 | 0 | 0.0 | 2.6 | 0.00 | 0.00 | 0.00 | 52 | 1007.3 |
| 20260504024016 | 69 | 184 | 0.9 | 2.6 | 0.00 | 0.00 | 0.00 | 53 | 1007.1 |
| 20260504023515 | 70 | 184 | 1.7 | 2.6 | 0.00 | 0.00 | 0.00 | 54 | 1007.1 |
| 20260504023034 | 72 | 184 | 0.9 | 3.5 | 0.00 | 0.00 | 0.00 | 53 | 1007.2 |
| 20260504022515 | 75 | 184 | 1.7 | 3.5 | 0.00 | 0.00 | 0.00 | 50 | 1007.1 |
| 20260504022014 | 77 | 0 | 0.0 | 2.6 | 0.00 | 0.00 | 0.00 | 46 | 1007.1 |
| 20260504021534 | 77 | 0 | 0.0 | 3.5 | 0.00 | 0.00 | 0.00 | 45 | 1007.2 |
| 20260504021015 | 78 | 184 | 1.7 | 3.5 | 0.00 | 0.00 | 0.00 | 35 | 1007.2 |
| 20260504020514 | 79 | 184 | 1.7 | 2.6 | 0.00 | 0.00 | 0.00 | 35 | 1007.1 |
| 20260504020034 | 80 | 184 | 0.9 | 2.6 | 0.00 | 0.00 | 0.00 | 36 | 1007.1 |
| 20260504015515 | 82 | 192 | 0.9 | 1.7 | 0.00 | 0.00 | 0.00 | 35 | 1007.1 |
| 20260504015015 | 83 | 0 | 0.0 | 0.0 | 0.00 | 0.00 | 0.00 | 40 | 1007.2 |
| 20260504014535 | 84 | 0 | 0.0 | 0.9 | 0.00 | 0.00 | 0.00 | 34 | 1007.2 |
| 20260504014015 | 83 | 0 | 0.0 | 2.6 | 0.00 | 0.00 | 0.00 | 27 | 1007.3 |
| 20260504013515 | 83 | 0 | 0.0 | 3.5 | 0.00 | 0.00 | 0.00 | 27 | 1007.3 |
| 20260504013040 | 83 | 0 | 0.9 | 3.5 | 0.00 | 0.00 | 0.00 | 26 | 1007.3 |
| 20260504012518 | 83 | 312 | 0.9 | 3.5 | 0.00 | 0.00 | 0.00 | 26 | 1007.4 |
| 20260504012015 | 83 | 309 | 0.0 | 2.6 | 0.00 | 0.00 | 0.00 | 25 | 1007.4 |
| 20260504011536 | 83 | 309 | 0.0 | 3.5 | 0.00 | 0.00 | 0.00 | 24 | 1007.6 |
| 20260504011014 | 83 | 309 | 1.7 | 3.5 | 0.00 | 0.00 | 0.00 | 24 | 1007.5 |
| 20260504010518 | 83 | 314 | 0.9 | 3.5 | 0.00 | 0.00 | 0.00 | 24 | 1007.5 |
| 20260504010034 | 82 | 292 | 0.9 | 3.5 | 0.00 | 0.00 | 0.00 | 25 | 1007.6 |
| 20260504005516 | 82 | 317 | 1.7 | 4.3 | 0.00 | 0.00 | 0.00 | 29 | 1007.7 |
| 20260504005015 | 82 | 344 | 1.7 | 4.3 | 0.00 | 0.00 | 0.00 | 29 | 1007.8 |
| 20260504004532 | 82 | 346 | 2.6 | 4.3 | 0.00 | 0.00 | 0.00 | 31 | 1007.8 |
| 20260504004017 | 83 | 339 | 0.9 | 3.5 | 0.00 | 0.00 | 0.00 | 24 | 1007.9 |
| 20260504003515 | 82 | 303 | 0.9 | 7.0 | 0.00 | 0.00 | 0.00 | 27 | 1007.9 |
| 20260504003033 | 82 | 339 | 3.5 | 7.0 | 0.00 | 0.00 | 0.00 | 28 | 1008.0 |
| 20260504002515 | 82 | 326 | 3.5 | 7.0 | 0.00 | 0.00 | 0.00 | 24 | 1008.1 |
| 20260504002013 | 83 | 339 | 0.9 | 3.5 | 0.00 | 0.00 | 0.00 | 29 | 1008.1 |
| 20260504001533 | 83 | 330 | 1.7 | 3.5 | 0.00 | 0.00 | 0.00 | 24 | 1008.2 |
| 20260504001016 | 83 | 0 | 0.9 | 3.5 | 0.00 | 0.00 | 0.00 | 26 | 1008.3 |
| 20260504000516 | 83 | 65 | 0.9 | 5.2 | 0.00 | 0.00 | 0.00 | 24 | 1008.3 |
| 20260504000031 | 83 | 328 | 1.7 | 6.1 | 0.00 | 0.00 | 0.00 | 26 | 1008.3 |
| 20260503235515 | 83 | 309 | 2.6 | 6.1 | 0.00 | 0.00 | 0.00 | 22 | 1008.4 |
| 20260503235015 | 82 | 281 | 1.7 | 5.2 | 0.00 | 0.00 | 0.00 | 26 | 1008.5 |
| 20260503234533 | 82 | 352 | 2.6 | 5.2 | 0.00 | 0.00 | 0.00 | 24 | 1008.5 |
| 20260503234015 | 82 | 331 | 0.9 | 7.0 | 0.00 | 0.00 | 0.00 | 27 | 1008.5 |
| 20260503233515 | 81 | 313 | 1.7 | 7.0 | 0.00 | 0.00 | 0.00 | 24 | 1008.6 |
| 20260503233035 | 81 | 342 | 3.5 | 8.7 | 0.00 | 0.00 | 0.00 | 26 | 1008.7 |
| 20260503232515 | 81 | 305 | 4.3 | 8.7 | 0.00 | 0.00 | 0.00 | 25 | 1008.8 |
| 20260503232015 | 81 | 352 | 5.2 | 9.6 | 0.00 | 0.00 | 0.00 | 27 | 1008.8 |
| 20260503231534 | 81 | 18 | 5.2 | 9.6 | 0.00 | 0.00 | 0.00 | 29 | 1008.9 |
| 20260503231015 | 81 | 330 | 5.2 | 9.6 | 0.00 | 0.00 | 0.00 | 26 | 1009.0 |
| 20260503230517 | 81 | 360 | 4.3 | 8.7 | 0.00 | 0.00 | 0.00 | 26 | 1009.0 |
| 20260503230034 | 81 | 360 | 5.2 | 8.7 | 0.00 | 0.00 | 0.00 | 27 | 1009.2 |
| 20260503225517 | 81 | 13 | 4.3 | 15.6 | 0.00 | 0.00 | 0.00 | 28 | 1009.1 |
| 20260503225015 | 81 | 333 | 7.8 | 15.6 | 0.00 | 0.00 | 0.00 | 30 | 1009.3 |
| 20260503224534 | 81 | 329 | 7.8 | 12.2 | 0.00 | 0.00 | 0.00 | 26 | 1009.3 |
| 20260503224019 | 81 | 346 | 7.0 | 12.2 | 0.00 | 0.00 | 0.00 | 26 | 1009.5 |
| 20260503223515 | 81 | 333 | 2.6 | 11.3 | 0.00 | 0.00 | 0.00 | 30 | 1009.6 |
| 20260503223032 | 80 | 355 | 6.1 | 11.3 | 0.00 | 0.00 | 0.00 | 27 | 1009.7 |
| 20260503222515 | 80 | 21 | 7.8 | 11.3 | 0.00 | 0.00 | 0.00 | 29 | 1009.8 |
| 20260503222015 | 80 | 5 | 7.8 | 10.4 | 0.00 | 0.00 | 0.00 | 30 | 1009.8 |
| 20260503221531 | 80 | 5 | 7.0 | 12.2 | 0.00 | 0.00 | 0.00 | 29 | 1010.1 |
| 20260503221015 | 80 | 26 | 6.1 | 12.2 | 0.00 | 0.00 | 0.00 | 28 | 1010.1 |
| 20260503220515 | 80 | 26 | 6.1 | 12.2 | 0.00 | 0.00 | 0.00 | 27 | 1010.2 |
| 20260503220036 | 80 | 329 | 7.8 | 12.2 | 0.00 | 0.00 | 0.00 | 28 | 1010.3 |
| 20260503215516 | 80 | 40 | 7.0 | 12.2 | 0.00 | 0.00 | 0.00 | 32 | 1010.4 |
| 20260503215018 | 80 | 341 | 7.8 | 13.9 | 0.00 | 0.00 | 0.00 | 29 | 1010.4 |
| 20260503214537 | 80 | 351 | 8.7 | 13.9 | 0.00 | 0.00 | 0.00 | 28 | 1010.4 |
| 20260503214015 | 80 | 343 | 8.7 | 13.9 | 0.00 | 0.00 | 0.00 | 25 | 1010.5 |
| 20260503213515 | 80 | 360 | 6.1 | 12.2 | 0.00 | 0.00 | 0.00 | 27 | 1010.5 |
| 20260503213041 | 80 | 352 | 4.3 | 11.3 | 0.00 | 0.00 | 0.00 | 26 | 1010.6 |
| 20260503212516 | 80 | 360 | 2.6 | 10.4 | 0.00 | 0.00 | 0.00 | 28 | 1010.7 |
| 20260503212033 | 80 | 16 | 7.0 | 13.9 | 0.00 | 0.00 | 0.00 | 30 | 1010.8 |
| 20260503211537 | 80 | 351 | 7.8 | 13.9 | 0.00 | 0.00 | 0.00 | 28 | 1010.9 |
| 20260503211015 | 79 | 347 | 7.0 | 13.9 | 0.00 | 0.00 | 0.00 | 28 | 1010.9 |
| 20260503210519 | 79 | 11 | 4.3 | 12.2 | 0.00 | 0.00 | 0.00 | 29 | 1010.9 |
| 20260503210034 | 79 | 310 | 5.2 | 10.4 | 0.00 | 0.00 | 0.00 | 28 | 1011.0 |
| 20260503205515 | 78 | 24 | 5.2 | 10.4 | 0.00 | 0.00 | 0.00 | 28 | 1011.1 |
| 20260503205015 | 78 | 93 | 0.9 | 7.8 | 0.00 | 0.00 | 0.00 | 27 | 1011.1 |
| 20260503204533 | 78 | 52 | 2.6 | 9.6 | 0.00 | 0.00 | 0.00 | 26 | 1011.3 |
| 20260503204013 | 78 | 22 | 2.6 | 9.6 | 0.00 | 0.00 | 0.00 | 29 | 1011.3 |
| 20260503203515 | 78 | 5 | 5.2 | 9.6 | 0.00 | 0.00 | 0.00 | 29 | 1011.3 |
| 20260503203035 | 78 | 28 | 4.3 | 8.7 | 0.00 | 0.00 | 0.00 | 25 | 1011.4 |
| 20260503202515 | 78 | 352 | 2.6 | 10.4 | 0.00 | 0.00 | 0.00 | 26 | 1011.4 |